Location: Austin
(30.3000°N, 97.7500°W)
Time: 09:02:52
(UTC-06:00)

CZ-4 R/B - Pass Details

Date: 12 February 2024
Orbit: 519 x 575 km, 97.7° (Epoch: 28 February)

Event Time Altitude Azimuth Distance (km) Brightness Sun altitude
Exits shadow 19:26:07 15° 31° (NNE) 1,473 3.1 -15.5°
Drops below altitude 10° 19:27:09 10° 20° (NNE) 1,788 3.7 -15.7°
Sets 19:29:36 0° 5° (N) 2,693 4.7 -16.3°
